Time,TemperatureF,DewpointF,PressureIn,WindDirection,WindDirectionDegrees,WindSpeedMPH,WindSpeedGustMPH,Humidity,HourlyPrecipIn,Conditions,Clouds,dailyrainin,SoftwareType,DateUTC
2013-10-12 00:03:00,56.7,46.4,29.84,NE,38,0.0,0.0,66,0.00,,---,0.00,cosweather0.1e,2013-10-12 07:03:00,
2013-10-12 00:08:00,56.7,46.4,29.84,NE,38,0.0,0.0,66,0.00,,---,0.00,cosweather0.1e,2013-10-12 07:08:00,
2013-10-12 00:13:00,56.7,46.4,29.84,NE,37,0.0,0.0,66,0.00,,---,0.00,cosweather0.1e,2013-10-12 07:13:00,
2013-10-12 00:18:00,56.7,46.4,29.84,NE,37,0.0,0.0,66,0.00,,---,0.00,cosweather0.1e,2013-10-12 07:18:00,
2013-10-12 00:23:00,56.5,46.4,29.84,NE,38,0.0,0.0,66,0.00,,---,0.00,cosweather0.1e,2013-10-12 07:23:00,
2013-10-12 00:28:00,56.5,46.4,29.84,NE,38,0.0,0.0,66,0.00,,---,0.00,cosweather0.1e,2013-10-12 07:28:00,
2013-10-12 00:33:00,56.3,46.4,29.84,NE,38,0.0,0.0,67,0.00,,---,0.00,cosweather0.1e,2013-10-12 07:33:00,
2013-10-12 00:38:00,56.3,46.4,29.84,NE,38,0.0,0.0,67,0.00,,---,0.00,cosweather0.1e,2013-10-12 07:38:00,
2013-10-12 00:43:00,55.9,44.6,29.84,NE,38,0.0,0.0,67,0.00,,---,0.00,cosweather0.1e,2013-10-12 07:43:00,
2013-10-12 00:48:00,55.6,44.6,29.84,NNE,30,0.0,0.0,68,0.00,,---,0.00,cosweather0.1e,2013-10-12 07:48:00,
2013-10-12 00:53:00,55.2,44.6,29.84,NNE,31,0.0,0.0,69,0.00,,---,0.00,cosweather0.1e,2013-10-12 07:53:00,
2013-10-12 00:58:00,54.9,46.4,29.84,NE,37,0.0,0.0,70,0.00,,---,0.00,cosweather0.1e,2013-10-12 07:58:00,
2013-10-12 01:03:00,54.9,46.4,29.84,NE,37,0.0,0.0,70,0.00,,---,0.00,cosweather0.1e,2013-10-12 08:03:00,
2013-10-12 01:08:00,55.0,46.4,29.84,NE,36,0.0,0.0,71,0.00,,---,0.00,cosweather0.1e,2013-10-12 08:08:00,
2013-10-12 01:13:00,55.4,46.4,29.84,NE,37,0.0,0.0,70,0.00,,---,0.00,cosweather0.1e,2013-10-12 08:13:00,
2013-10-12 01:18:00,55.4,46.4,29.84,NE,37,0.0,0.0,70,0.00,,---,0.00,cosweather0.1e,2013-10-12 08:18:00,
2013-10-12 01:23:00,55.6,46.4,29.84,NE,36,0.0,0.0,70,0.00,,---,0.00,cosweather0.1e,2013-10-12 08:23:00,
2013-10-12 01:28:00,55.6,44.6,29.84,NE,36,0.0,0.0,69,0.00,,---,0.00,cosweather0.1e,2013-10-12 08:28:00,
2013-10-12 01:33:00,55.6,44.6,29.84,NE,37,0.0,0.0,69,0.00,,---,0.00,cosweather0.1e,2013-10-12 08:33:00,
2013-10-12 01:38:00,55.6,44.6,29.84,NE,37,0.0,0.0,69,0.00,,---,0.00,cosweather0.1e,2013-10-12 08:38:00,
2013-10-12 01:43:00,55.6,44.6,29.84,NE,36,0.0,0.0,69,0.00,,---,0.00,cosweather0.1e,2013-10-12 08:43:00,
2013-10-12 01:48:00,55.4,44.6,29.84,NE,37,0.0,0.0,68,0.00,,---,0.00,cosweather0.1e,2013-10-12 08:48:00,
2013-10-12 01:53:00,55.2,44.6,29.84,NE,36,0.0,0.0,69,0.00,,---,0.00,cosweather0.1e,2013-10-12 08:53:00,
2013-10-12 01:58:00,55.0,44.6,29.84,NE,37,0.0,0.0,68,0.00,,---,0.00,cosweather0.1e,2013-10-12 08:58:00,
2013-10-12 02:03:00,54.9,44.6,29.84,NE,36,0.0,0.0,69,0.00,,---,0.00,cosweather0.1e,2013-10-12 09:03:00,
2013-10-12 02:08:00,54.9,44.6,29.84,NE,37,0.0,0.0,69,0.00,,---,0.00,cosweather0.1e,2013-10-12 09:08:00,
2013-10-12 02:13:00,54.9,44.6,29.84,NE,36,0.0,0.0,69,0.00,,---,0.00,cosweather0.1e,2013-10-12 09:13:00,
2013-10-12 02:18:00,54.9,44.6,29.84,NE,37,0.0,0.0,69,0.00,,---,0.00,cosweather0.1e,2013-10-12 09:18:00,
2013-10-12 02:23:00,54.9,46.4,29.84,NE,36,0.0,0.0,70,0.00,,---,0.00,cosweather0.1e,2013-10-12 09:23:00,
2013-10-12 02:28:00,55.0,44.6,29.84,NE,36,0.0,0.0,69,0.00,,---,0.00,cosweather0.1e,2013-10-12 09:28:00,
2013-10-12 02:33:00,54.9,44.6,29.84,NE,36,0.0,0.0,69,0.00,,---,0.00,cosweather0.1e,2013-10-12 09:33:00,
2013-10-12 02:38:00,54.9,44.6,29.84,NE,37,0.0,0.0,69,0.00,,---,0.00,cosweather0.1e,2013-10-12 09:38:00,
2013-10-12 02:43:00,54.9,44.6,29.84,NE,36,0.0,0.0,69,0.00,,---,0.00,cosweather0.1e,2013-10-12 09:43:00,
2013-10-12 02:48:00,54.9,44.6,29.84,NE,36,0.0,0.0,69,0.00,,---,0.00,cosweather0.1e,2013-10-12 09:48:00,
2013-10-12 02:53:00,54.9,44.6,29.84,NE,37,0.0,0.0,69,0.00,,---,0.00,cosweather0.1e,2013-10-12 09:53:00,
2013-10-12 02:58:00,54.7,44.6,29.84,NE,37,0.0,0.0,69,0.00,,---,0.00,cosweather0.1e,2013-10-12 09:58:00,
2013-10-12 03:03:00,54.5,44.6,29.84,NE,36,0.0,0.0,69,0.00,,---,0.00,cosweather0.1e,2013-10-12 10:03:00,
2013-10-12 03:08:00,54.5,44.6,29.84,NE,37,0.0,0.0,69,0.00,,---,0.00,cosweather0.1e,2013-10-12 10:08:00,
2013-10-12 03:13:00,54.5,44.6,29.84,NE,37,0.0,0.0,69,0.00,,---,0.00,cosweather0.1e,2013-10-12 10:13:00,
2013-10-12 03:18:00,54.3,44.6,29.84,NE,36,0.0,0.0,69,0.00,,---,0.00,cosweather0.1e,2013-10-12 10:18:00,
2013-10-12 03:24:00,54.3,44.6,29.84,NE,37,0.0,0.0,69,0.00,,---,0.00,cosweather0.1e,2013-10-12 10:24:00,
2013-10-12 03:29:00,54.3,44.6,29.84,NE,36,0.0,0.0,69,0.00,,---,0.00,cosweather0.1e,2013-10-12 10:29:00,
2013-10-12 03:34:00,54.3,44.6,29.84,NE,37,0.0,0.0,69,0.00,,---,0.00,cosweather0.1e,2013-10-12 10:34:00,
2013-10-12 03:39:00,54.3,44.6,29.84,NE,37,0.0,0.0,69,0.00,,---,0.00,cosweather0.1e,2013-10-12 10:39:00,
2013-10-12 03:44:00,54.3,44.6,29.84,NE,36,0.0,0.0,69,0.00,,---,0.00,cosweather0.1e,2013-10-12 10:44:00,
2013-10-12 03:49:00,54.3,44.6,29.84,NE,36,0.0,0.0,69,0.00,,---,0.00,cosweather0.1e,2013-10-12 10:49:00,
2013-10-12 03:54:00,54.1,44.6,29.84,NE,36,0.0,0.0,69,0.00,,---,0.00,cosweather0.1e,2013-10-12 10:54:00,
2013-10-12 03:59:00,53.8,44.6,29.84,NE,37,0.0,0.0,70,0.00,,---,0.00,cosweather0.1e,2013-10-12 10:59:00,
2013-10-12 04:04:00,53.4,44.6,29.84,NNE,28,0.0,2.7,71,0.00,,---,0.00,cosweather0.1e,2013-10-12 11:04:00,
2013-10-12 04:09:00,53.2,44.6,29.84,NNE,26,0.0,2.7,72,0.00,,---,0.00,cosweather0.1e,2013-10-12 11:09:00,
2013-10-12 04:14:00,53.1,46.4,29.84,NNE,29,0.0,0.0,74,0.00,,---,0.00,cosweather0.1e,2013-10-12 11:14:00,
2013-10-12 04:19:00,53.1,46.4,29.84,NNE,31,0.0,0.0,75,0.00,,---,0.00,cosweather0.1e,2013-10-12 11:19:00,
2013-10-12 04:24:00,52.9,46.4,29.84,NNE,32,0.0,0.0,75,0.00,,---,0.00,cosweather0.1e,2013-10-12 11:24:00,
2013-10-12 04:29:00,52.9,46.4,29.84,NNE,32,0.0,0.0,75,0.00,,---,0.00,cosweather0.1e,2013-10-12 11:29:00,
2013-10-12 04:34:00,53.1,46.4,29.84,NNE,31,0.0,0.0,76,0.00,,---,0.00,cosweather0.1e,2013-10-12 11:34:00,
2013-10-12 04:39:00,53.2,46.4,29.80,NNE,31,0.0,0.0,75,0.00,,---,0.00,cosweather0.1e,2013-10-12 11:39:00,
2013-10-12 04:44:00,53.2,46.4,29.80,NNE,32,0.0,0.0,75,0.00,,---,0.00,cosweather0.1e,2013-10-12 11:44:00,
2013-10-12 04:49:00,53.4,46.4,29.80,NNE,32,0.0,0.0,75,0.00,,---,0.00,cosweather0.1e,2013-10-12 11:49:00,
2013-10-12 04:54:00,53.4,46.4,29.80,NNE,32,0.0,0.0,75,0.00,,---,0.00,cosweather0.1e,2013-10-12 11:54:00,
2013-10-12 04:59:00,53.4,46.4,29.80,NNE,31,0.0,0.0,74,0.00,,---,0.00,cosweather0.1e,2013-10-12 11:59:00,
2013-10-12 05:04:00,53.4,46.4,29.80,NNE,32,0.0,0.0,74,0.00,,---,0.00,cosweather0.1e,2013-10-12 12:04:00,
2013-10-12 05:09:00,53.4,46.4,29.80,NNE,31,0.0,0.0,74,0.00,,---,0.00,cosweather0.1e,2013-10-12 12:09:00,
2013-10-12 05:14:00,53.4,46.4,29.80,NNE,32,0.0,0.0,74,0.00,,---,0.00,cosweather0.1e,2013-10-12 12:14:00,
2013-10-12 05:19:00,53.4,46.4,29.80,NNE,31,0.0,0.0,74,0.00,,---,0.00,cosweather0.1e,2013-10-12 12:19:00,
2013-10-12 05:24:00,53.4,44.6,29.80,NNE,31,0.0,0.0,73,0.00,,---,0.00,cosweather0.1e,2013-10-12 12:24:00,
2013-10-12 05:29:00,53.2,44.6,29.80,NNE,32,0.0,0.0,73,0.00,,---,0.00,cosweather0.1e,2013-10-12 12:29:00,
2013-10-12 05:35:00,53.2,44.6,29.80,NNE,32,0.0,0.0,73,0.00,,---,0.00,cosweather0.1e,2013-10-12 12:35:00,
2013-10-12 05:40:00,53.2,44.6,29.84,NNE,31,0.0,0.0,73,0.00,,---,0.00,cosweather0.1e,2013-10-12 12:40:00,
2013-10-12 05:45:00,53.2,44.6,29.84,NNE,32,0.0,0.0,73,0.00,,---,0.00,cosweather0.1e,2013-10-12 12:45:00,
2013-10-12 05:50:00,53.2,44.6,29.84,NNE,32,0.0,0.0,73,0.00,,---,0.00,cosweather0.1e,2013-10-12 12:50:00,
2013-10-12 05:55:00,53.1,44.6,29.84,NNE,31,0.0,0.0,73,0.00,,---,0.00,cosweather0.1e,2013-10-12 12:55:00,
2013-10-12 06:00:00,53.1,44.6,29.84,NNE,31,0.0,0.0,73,0.00,,---,0.00,cosweather0.1e,2013-10-12 13:00:00,
2013-10-12 06:05:00,53.1,44.6,29.84,NNE,32,0.0,0.0,73,0.00,,---,0.00,cosweather0.1e,2013-10-12 13:05:00,
2013-10-12 06:10:00,52.9,44.6,29.84,NNE,32,0.0,0.0,73,0.00,,---,0.00,cosweather0.1e,2013-10-12 13:10:00,
2013-10-12 06:15:00,52.9,44.6,29.84,NNE,32,0.0,0.0,73,0.00,,---,0.00,cosweather0.1e,2013-10-12 13:15:00,
2013-10-12 06:20:00,52.9,44.6,29.84,NNE,32,0.0,0.0,73,0.00,,---,0.00,cosweather0.1e,2013-10-12 13:20:00,
2013-10-12 06:25:00,52.9,44.6,29.84,NNE,32,0.0,0.0,73,0.00,,---,0.00,cosweather0.1e,2013-10-12 13:25:00,
2013-10-12 06:30:00,52.9,44.6,29.84,NNE,32,0.0,0.0,73,0.00,,---,0.00,cosweather0.1e,2013-10-12 13:30:00,
2013-10-12 06:35:00,52.7,44.6,29.84,NNE,32,0.0,0.0,73,0.00,,---,0.00,cosweather0.1e,2013-10-12 13:35:00,
2013-10-12 06:40:00,52.7,44.6,29.84,NNE,32,0.0,0.0,73,0.00,,---,0.00,cosweather0.1e,2013-10-12 13:40:00,
2013-10-12 06:45:00,52.9,46.4,29.84,NNE,32,0.0,0.0,74,0.00,,---,0.00,cosweather0.1e,2013-10-12 13:45:00,
2013-10-12 06:50:00,52.9,46.4,29.84,NNE,32,0.0,0.0,74,0.00,,---,0.00,cosweather0.1e,2013-10-12 13:50:00,
2013-10-12 06:55:00,53.1,46.4,29.84,NNE,32,0.0,0.0,74,0.00,,---,0.00,cosweather0.1e,2013-10-12 13:55:00,
2013-10-12 07:00:00,53.1,46.4,29.84,NNE,32,0.0,0.0,74,0.00,,---,0.00,cosweather0.1e,2013-10-12 14:00:00,
2013-10-12 07:05:00,53.1,46.4,29.84,NNE,32,0.0,0.0,74,0.00,,---,0.00,cosweather0.1e,2013-10-12 14:05:00,
2013-10-12 07:10:00,53.2,46.4,29.84,NNE,31,0.0,0.0,74,0.00,,---,0.00,cosweather0.1e,2013-10-12 14:10:00,
2013-10-12 07:15:00,53.2,46.4,29.84,NNE,31,0.0,0.0,75,0.00,,---,0.00,cosweather0.1e,2013-10-12 14:15:00,
2013-10-12 07:20:00,53.6,46.4,29.84,NNE,32,0.0,0.0,75,0.00,,---,0.00,cosweather0.1e,2013-10-12 14:20:00,
2013-10-12 07:25:00,53.8,46.4,29.84,NNE,32,0.0,0.0,75,0.00,,---,0.00,cosweather0.1e,2013-10-12 14:25:00,
2013-10-12 07:30:00,53.8,46.4,29.84,NNE,31,0.0,0.0,75,0.00,,---,0.00,cosweather0.1e,2013-10-12 14:30:00,
2013-10-12 07:35:00,53.6,46.4,29.84,NNE,32,0.0,0.0,75,0.00,,---,0.00,cosweather0.1e,2013-10-12 14:35:00,
2013-10-12 07:40:00,53.6,46.4,29.84,NE,37,0.0,0.0,75,0.00,,---,0.00,cosweather0.1e,2013-10-12 14:40:00,
2013-10-12 07:45:00,53.8,46.4,29.84,NE,45,0.0,0.0,76,0.00,,---,0.00,cosweather0.1e,2013-10-12 14:45:00,
2013-10-12 07:50:00,53.6,46.4,29.84,South,176,0.0,0.0,76,0.00,,---,0.00,cosweather0.1e,2013-10-12 14:50:00,
2013-10-12 07:55:00,53.8,46.4,29.84,South,177,0.0,0.0,77,0.00,,---,0.00,cosweather0.1e,2013-10-12 14:55:00,
2013-10-12 08:00:00,54.0,46.4,29.84,South,177,0.0,0.0,77,0.00,,---,0.00,cosweather0.1e,2013-10-12 15:00:00,
2013-10-12 08:05:00,53.8,46.4,29.84,SSW,194,0.0,0.0,78,0.00,,---,0.00,cosweather0.1e,2013-10-12 15:05:00,
2013-10-12 08:10:00,54.0,46.4,29.84,SSW,194,0.0,0.0,78,0.00,,---,0.00,cosweather0.1e,2013-10-12 15:10:00,
2013-10-12 08:15:00,54.0,46.4,29.84,South,184,0.0,0.0,78,0.00,,---,0.00,cosweather0.1e,2013-10-12 15:15:00,
2013-10-12 08:20:00,54.0,46.4,29.84,South,185,0.0,0.0,79,0.00,,---,0.00,cosweather0.1e,2013-10-12 15:20:00,
2013-10-12 08:25:00,54.0,46.4,29.84,SSW,204,0.0,0.0,79,0.00,,---,0.00,cosweather0.1e,2013-10-12 15:25:00,
2013-10-12 08:30:00,54.0,46.4,29.84,SSW,208,0.0,0.0,79,0.00,,---,0.00,cosweather0.1e,2013-10-12 15:30:00,
2013-10-12 08:35:00,54.0,46.4,29.84,SSW,193,0.0,0.0,79,0.00,,---,0.00,cosweather0.1e,2013-10-12 15:35:00,
2013-10-12 08:40:00,54.0,48.2,29.84,SSW,193,0.0,0.0,80,0.00,,---,0.00,cosweather0.1e,2013-10-12 15:40:00,
2013-10-12 08:46:00,53.8,48.2,29.84,SSW,193,0.0,0.0,80,0.00,,---,0.00,cosweather0.1e,2013-10-12 15:46:00,
2013-10-12 08:51:00,54.0,48.2,29.84,South,191,0.0,0.0,80,0.00,,---,0.00,cosweather0.1e,2013-10-12 15:51:00,
2013-10-12 08:56:00,53.8,48.2,29.84,South,190,0.0,0.0,81,0.00,,---,0.00,cosweather0.1e,2013-10-12 15:56:00,
2013-10-12 09:01:00,54.0,48.2,29.84,WSW,246,0.0,0.0,81,0.00,,---,0.00,cosweather0.1e,2013-10-12 16:01:00,
2013-10-12 09:06:00,54.1,48.2,29.84,West,267,0.0,0.0,81,0.00,,---,0.00,cosweather0.1e,2013-10-12 16:06:00,
2013-10-12 09:11:00,54.3,48.2,29.84,SW,216,0.0,0.0,81,0.00,,---,0.00,cosweather0.1e,2013-10-12 16:11:00,
2013-10-12 09:16:00,54.1,48.2,29.84,SSW,202,0.0,0.0,82,0.00,,---,0.00,cosweather0.1e,2013-10-12 16:16:00,
2013-10-12 09:21:00,54.3,48.2,29.84,WNW,292,0.0,0.0,82,0.00,,---,0.00,cosweather0.1e,2013-10-12 16:21:00,
2013-10-12 09:26:00,54.5,50.0,29.84,West,259,0.0,0.0,82,0.00,,---,0.00,cosweather0.1e,2013-10-12 16:26:00,
2013-10-12 09:31:00,54.7,50.0,29.84,SSW,208,0.0,0.0,82,0.00,,---,0.00,cosweather0.1e,2013-10-12 16:31:00,
2013-10-12 09:36:00,54.7,50.0,29.84,SSW,208,0.0,0.0,82,0.00,,---,0.00,cosweather0.1e,2013-10-12 16:36:00,
2013-10-12 09:41:00,54.7,50.0,29.84,SSW,208,0.0,0.0,82,0.00,,---,0.00,cosweather0.1e,2013-10-12 16:41:00,
2013-10-12 09:46:00,54.9,50.0,29.84,SSW,209,0.0,0.0,82,0.00,,---,0.00,cosweather0.1e,2013-10-12 16:46:00,
2013-10-12 09:51:00,55.0,50.0,29.84,NNE,21,0.0,0.0,82,0.00,,---,0.00,cosweather0.1e,2013-10-12 16:51:00,
2013-10-12 09:56:00,55.0,50.0,29.84,ENE,57,0.0,2.2,83,0.00,,---,0.00,cosweather0.1e,2013-10-12 16:56:00,
2013-10-12 10:01:00,55.0,50.0,29.84,North,0,0.0,0.0,83,0.00,,---,0.00,cosweather0.1e,2013-10-12 17:01:00,
2013-10-12 10:06:00,55.2,50.0,29.84,North,357,0.0,0.0,83,0.00,,---,0.00,cosweather0.1e,2013-10-12 17:06:00,
2013-10-12 10:11:00,55.4,50.0,29.84,North,9,0.0,0.0,83,0.00,,---,0.00,cosweather0.1e,2013-10-12 17:11:00,
2013-10-12 10:16:00,55.8,50.0,29.84,NNE,13,0.0,0.0,83,0.00,,---,0.00,cosweather0.1e,2013-10-12 17:16:00,
2013-10-12 10:21:00,56.1,50.0,29.84,SW,228,0.0,0.0,83,0.00,,---,0.00,cosweather0.1e,2013-10-12 17:21:00,
2013-10-12 10:26:00,56.3,51.8,29.84,WSW,248,0.0,3.1,83,0.00,,---,0.00,cosweather0.1e,2013-10-12 17:26:00,
2013-10-12 10:31:00,56.8,51.8,29.84,SSW,195,0.0,4.0,83,0.00,,---,0.00,cosweather0.1e,2013-10-12 17:31:00,
2013-10-12 10:36:00,57.4,51.8,29.84,SW,222,0.0,0.0,82,0.00,,---,0.00,cosweather0.1e,2013-10-12 17:36:00,
2013-10-12 10:41:00,57.6,51.8,29.84,NW,308,0.0,4.9,82,0.00,,---,0.00,cosweather0.1e,2013-10-12 17:41:00,
2013-10-12 10:46:00,57.7,51.8,29.84,NW,319,0.0,0.0,81,0.00,,---,0.00,cosweather0.1e,2013-10-12 17:46:00,
2013-10-12 10:51:00,57.7,50.0,29.84,SW,230,0.0,3.6,79,0.00,,---,0.00,cosweather0.1e,2013-10-12 17:51:00,
2013-10-12 10:56:00,58.5,51.8,29.84,SW,235,0.0,4.0,79,0.00,,---,0.00,cosweather0.1e,2013-10-12 17:56:00,
2013-10-12 11:01:00,59.2,51.8,29.84,SW,221,0.0,2.2,79,0.00,,---,0.00,cosweather0.1e,2013-10-12 18:01:00,
2013-10-12 11:06:00,59.7,51.8,29.84,North,353,0.0,2.7,78,0.00,,---,0.00,cosweather0.1e,2013-10-12 18:06:00,
2013-10-12 11:11:00,59.7,50.0,29.84,WNW,299,0.0,2.7,73,0.00,,---,0.00,cosweather0.1e,2013-10-12 18:11:00,
2013-10-12 11:16:00,60.3,51.8,29.84,WNW,297,0.0,0.0,74,0.00,,---,0.00,cosweather0.1e,2013-10-12 18:16:00,
2013-10-12 11:21:00,60.4,51.8,29.84,WNW,296,0.0,3.6,71,0.00,,---,0.00,cosweather0.1e,2013-10-12 18:21:00,
2013-10-12 11:26:00,60.8,51.8,29.84,West,266,0.0,2.2,70,0.00,,---,0.00,cosweather0.1e,2013-10-12 18:26:00,
2013-10-12 11:31:00,61.5,51.8,29.84,WSW,248,0.0,3.1,70,0.00,,---,0.00,cosweather0.1e,2013-10-12 18:31:00,
2013-10-12 11:36:00,62.4,53.6,29.84,NW,322,0.0,3.1,71,0.00,,---,0.00,cosweather0.1e,2013-10-12 18:36:00,
2013-10-12 11:41:00,62.6,51.8,29.80,North,353,0.0,4.0,67,0.00,,---,0.00,cosweather0.1e,2013-10-12 18:41:00,
2013-10-12 11:46:00,63.0,50.0,29.80,West,276,0.0,5.8,64,0.00,,---,0.00,cosweather0.1e,2013-10-12 18:46:00,
2013-10-12 11:51:00,63.5,51.8,29.80,NW,325,0.0,0.0,63,0.00,,---,0.00,cosweather0.1e,2013-10-12 18:51:00,
2013-10-12 11:57:00,63.9,51.8,29.80,SW,228,0.0,3.6,62,0.00,,---,0.00,cosweather0.1e,2013-10-12 18:57:00,
2013-10-12 12:02:00,64.8,51.8,29.80,WNW,303,0.0,5.4,63,0.00,,---,0.00,cosweather0.1e,2013-10-12 19:02:00,
2013-10-12 12:07:00,65.3,51.8,29.80,NW,309,0.0,0.0,61,0.00,,---,0.00,cosweather0.1e,2013-10-12 19:07:00,
2013-10-12 12:12:00,66.0,51.8,29.80,NW,311,0.0,4.0,61,0.00,,---,0.00,cosweather0.1e,2013-10-12 19:12:00,
2013-10-12 12:17:00,66.0,50.0,29.80,WNW,303,0.0,0.0,56,0.00,,---,0.00,cosweather0.1e,2013-10-12 19:17:00,
2013-10-12 12:22:00,66.4,50.0,29.80,NW,306,0.0,2.7,57,0.00,,---,0.00,cosweather0.1e,2013-10-12 19:22:00,
2013-10-12 12:27:00,66.6,48.2,29.80,SW,224,0.0,2.7,53,0.00,,---,0.00,cosweather0.1e,2013-10-12 19:27:00,
2013-10-12 12:32:00,67.1,50.0,29.80,SSW,211,0.0,3.6,54,0.00,,---,0.00,cosweather0.1e,2013-10-12 19:32:00,
2013-10-12 12:37:00,67.6,50.0,29.80,WNW,283,0.0,2.7,53,0.00,,---,0.00,cosweather0.1e,2013-10-12 19:37:00,
2013-10-12 12:42:00,67.8,48.2,29.80,SSW,206,0.0,5.4,48,0.00,,---,0.00,cosweather0.1e,2013-10-12 19:42:00,
2013-10-12 12:47:00,68.4,50.0,29.80,NW,316,0.0,2.7,51,0.00,,---,0.00,cosweather0.1e,2013-10-12 19:47:00,
2013-10-12 12:52:00,68.9,50.0,29.80,WSW,250,0.0,3.6,50,0.00,,---,0.00,cosweather0.1e,2013-10-12 19:52:00,
2013-10-12 12:57:00,69.3,50.0,29.80,WSW,254,0.0,3.1,48,0.00,,---,0.00,cosweather0.1e,2013-10-12 19:57:00,
2013-10-12 13:02:00,69.8,48.2,29.80,WNW,300,0.0,3.6,47,0.00,,---,0.00,cosweather0.1e,2013-10-12 20:02:00,
2013-10-12 13:07:00,70.2,48.2,29.80,WSW,249,0.0,5.4,46,0.00,,---,0.00,cosweather0.1e,2013-10-12 20:07:00,
2013-10-12 13:12:00,70.9,50.0,29.76,WSW,254,0.0,4.0,46,0.00,,---,0.00,cosweather0.1e,2013-10-12 20:12:00,
2013-10-12 13:17:00,71.1,50.0,29.76,SSW,192,0.0,0.0,45,0.00,,---,0.00,cosweather0.1e,2013-10-12 20:17:00,
2013-10-12 13:22:00,71.2,48.2,29.76,NNW,339,0.0,2.7,44,0.00,,---,0.00,cosweather0.1e,2013-10-12 20:22:00,
2013-10-12 13:27:00,71.8,48.2,29.76,NW,312,0.0,5.4,44,0.00,,---,0.00,cosweather0.1e,2013-10-12 20:27:00,
2013-10-12 13:32:00,72.0,48.2,29.76,SW,230,0.0,5.4,43,0.00,,---,0.00,cosweather0.1e,2013-10-12 20:32:00,
2013-10-12 13:37:00,72.3,48.2,29.76,WNW,290,0.0,3.6,42,0.00,,---,0.00,cosweather0.1e,2013-10-12 20:37:00,
2013-10-12 13:42:00,72.5,50.0,29.76,WSW,254,0.0,3.1,43,0.00,,---,0.00,cosweather0.1e,2013-10-12 20:42:00,
2013-10-12 13:47:00,72.7,48.2,29.76,WNW,296,0.0,0.0,42,0.00,,---,0.00,cosweather0.1e,2013-10-12 20:47:00,
2013-10-12 13:52:00,72.9,48.2,29.76,WNW,298,0.0,5.4,40,0.00,,---,0.00,cosweather0.1e,2013-10-12 20:52:00,
2013-10-12 13:57:00,72.9,46.4,29.72,NNE,32,0.0,4.0,38,0.00,,---,0.00,cosweather0.1e,2013-10-12 20:57:00,
2013-10-12 14:02:00,72.5,46.4,29.72,West,261,0.0,7.6,37,0.00,,---,0.00,cosweather0.1e,2013-10-12 21:02:00,
2013-10-12 14:07:00,72.5,46.4,29.72,West,270,0.0,4.9,37,0.00,,---,0.00,cosweather0.1e,2013-10-12 21:07:00,
2013-10-12 14:12:00,73.0,46.4,29.72,NW,312,0.0,5.4,39,0.00,,---,0.00,cosweather0.1e,2013-10-12 21:12:00,
2013-10-12 14:17:00,73.4,46.4,29.72,NNW,332,0.0,2.2,37,0.00,,---,0.00,cosweather0.1e,2013-10-12 21:17:00,
2013-10-12 14:22:00,73.6,44.6,29.72,NW,324,0.0,0.0,36,0.00,,---,0.00,cosweather0.1e,2013-10-12 21:22:00,
2013-10-12 14:27:00,73.4,44.6,29.72,NNW,337,0.0,4.9,36,0.00,,---,0.00,cosweather0.1e,2013-10-12 21:27:00,
2013-10-12 14:32:00,73.6,44.6,29.72,WNW,286,0.0,5.8,35,0.00,,---,0.00,cosweather0.1e,2013-10-12 21:32:00,
2013-10-12 14:37:00,73.8,44.6,29.72,NNW,332,0.0,4.9,35,0.00,,---,0.00,cosweather0.1e,2013-10-12 21:37:00,
2013-10-12 14:42:00,73.9,42.8,29.72,NW,304,0.0,3.6,33,0.00,,---,0.00,cosweather0.1e,2013-10-12 21:42:00,
2013-10-12 14:47:00,74.1,41.0,29.72,NW,307,0.0,5.8,32,0.00,,---,0.00,cosweather0.1e,2013-10-12 21:47:00,
2013-10-12 14:52:00,73.9,42.8,29.72,NW,315,0.0,3.1,34,0.00,,---,0.00,cosweather0.1e,2013-10-12 21:52:00,
2013-10-12 14:57:00,74.1,42.8,29.72,West,279,0.0,5.8,34,0.00,,---,0.00,cosweather0.1e,2013-10-12 21:57:00,
2013-10-12 15:02:00,74.1,42.8,29.72,NW,305,0.0,6.3,33,0.00,,---,0.00,cosweather0.1e,2013-10-12 22:02:00,
2013-10-12 15:07:00,74.1,42.8,29.72,North,4,0.0,4.0,33,0.00,,---,0.00,cosweather0.1e,2013-10-12 22:07:00,
2013-10-12 15:12:00,73.8,42.8,29.72,NNW,334,0.0,4.9,34,0.00,,---,0.00,cosweather0.1e,2013-10-12 22:12:00,
2013-10-12 15:17:00,73.2,42.8,29.72,NW,304,0.0,6.3,34,0.00,,---,0.00,cosweather0.1e,2013-10-12 22:17:00,
2013-10-12 15:22:00,73.0,44.6,29.72,NW,305,0.0,3.1,35,0.00,,---,0.00,cosweather0.1e,2013-10-12 22:22:00,
2013-10-12 15:27:00,73.0,44.6,29.72,WSW,240,0.0,5.8,35,0.00,,---,0.00,cosweather0.1e,2013-10-12 22:27:00,
2013-10-12 15:32:00,72.9,44.6,29.72,NW,317,0.0,5.4,36,0.00,,---,0.00,cosweather0.1e,2013-10-12 22:32:00,
2013-10-12 15:37:00,72.7,46.4,29.72,NW,319,0.0,2.7,38,0.00,,---,0.00,cosweather0.1e,2013-10-12 22:37:00,
2013-10-12 15:42:00,72.7,46.4,29.72,NW,320,0.0,7.6,38,0.00,,---,0.00,cosweather0.1e,2013-10-12 22:42:00,
2013-10-12 15:47:00,72.0,44.6,29.72,NNW,334,0.0,7.2,39,0.00,,---,0.00,cosweather0.1e,2013-10-12 22:47:00,
2013-10-12 15:52:00,71.6,46.4,29.72,NNW,333,0.0,6.3,40,0.00,,---,0.00,cosweather0.1e,2013-10-12 22:52:00,
2013-10-12 15:57:00,71.2,46.4,29.72,NNW,328,0.0,6.7,41,0.00,,---,0.00,cosweather0.1e,2013-10-12 22:57:00,
2013-10-12 16:02:00,70.7,46.4,29.72,NW,313,0.0,8.3,41,0.00,,---,0.00,cosweather0.1e,2013-10-12 23:02:00,
2013-10-12 16:07:00,70.3,44.6,29.72,NW,312,0.0,2.7,39,0.00,,---,0.00,cosweather0.1e,2013-10-12 23:07:00,
2013-10-12 16:12:00,70.0,44.6,29.72,NW,309,0.0,12.8,40,0.00,,---,0.00,cosweather0.1e,2013-10-12 23:12:00,
2013-10-12 16:17:00,69.6,44.6,29.72,NNW,346,0.0,5.4,41,0.00,,---,0.00,cosweather0.1e,2013-10-12 23:17:00,
2013-10-12 16:22:00,69.8,44.6,29.72,NNW,327,0.0,3.1,41,0.00,,---,0.00,cosweather0.1e,2013-10-12 23:22:00,
2013-10-12 16:27:00,69.4,44.6,29.72,NW,317,0.0,5.4,39,0.00,,---,0.00,cosweather0.1e,2013-10-12 23:27:00,
2013-10-12 16:32:00,68.9,44.6,29.72,West,275,0.0,4.0,40,0.00,,---,0.00,cosweather0.1e,2013-10-12 23:32:00,
2013-10-12 16:37:00,68.7,42.8,29.72,NW,321,0.0,2.7,41,0.00,,---,0.00,cosweather0.1e,2013-10-12 23:37:00,
2013-10-12 16:42:00,68.7,44.6,29.72,NNW,340,0.0,5.8,42,0.00,,---,0.00,cosweather0.1e,2013-10-12 23:42:00,
2013-10-12 16:47:00,68.2,44.6,29.72,NW,310,0.0,7.6,44,0.00,,---,0.00,cosweather0.1e,2013-10-12 23:47:00,
2013-10-12 16:52:00,67.6,46.4,29.72,NNW,331,0.0,8.1,45,0.00,,---,0.00,cosweather0.1e,2013-10-12 23:52:00,
2013-10-12 16:58:00,67.3,46.4,29.72,West,268,0.0,6.3,47,0.00,,---,0.00,cosweather0.1e,2013-10-12 23:58:00,
2013-10-12 17:03:00,66.2,46.4,29.72,NW,310,0.0,4.0,49,0.00,,---,0.00,cosweather0.1e,2013-10-13 00:03:00,
2013-10-12 17:08:00,65.5,46.4,29.72,North,7,0.0,5.4,50,0.00,,---,0.00,cosweather0.1e,2013-10-13 00:08:00,
2013-10-12 17:13:00,64.9,46.4,29.72,NNW,348,0.0,4.9,51,0.00,,---,0.00,cosweather0.1e,2013-10-13 00:13:00,
2013-10-12 17:18:00,64.6,46.4,29.72,NW,312,0.0,8.1,52,0.00,,---,0.00,cosweather0.1e,2013-10-13 00:18:00,
2013-10-12 17:23:00,64.4,46.4,29.72,NW,309,0.0,8.3,52,0.00,,---,0.00,cosweather0.1e,2013-10-13 00:23:00,
2013-10-12 17:28:00,64.2,46.4,29.72,WNW,298,0.0,7.6,52,0.00,,---,0.00,cosweather0.1e,2013-10-13 00:28:00,
2013-10-12 17:33:00,64.4,46.4,29.72,NW,305,0.0,4.9,51,0.00,,---,0.00,cosweather0.1e,2013-10-13 00:33:00,
2013-10-12 17:38:00,64.0,46.4,29.72,WNW,300,0.0,3.1,51,0.00,,---,0.00,cosweather0.1e,2013-10-13 00:38:00,
2013-10-12 17:43:00,63.9,44.6,29.72,NW,321,0.0,6.3,50,0.00,,---,0.00,cosweather0.1e,2013-10-13 00:43:00,
2013-10-12 17:48:00,63.5,46.4,29.72,WSW,247,0.0,3.1,51,0.00,,---,0.00,cosweather0.1e,2013-10-13 00:48:00,
2013-10-12 17:53:00,63.5,46.4,29.72,WNW,282,0.0,2.2,51,0.00,,---,0.00,cosweather0.1e,2013-10-13 00:53:00,
2013-10-12 17:58:00,63.1,44.6,29.72,NW,307,0.0,4.0,52,0.00,,---,0.00,cosweather0.1e,2013-10-13 00:58:00,
2013-10-12 18:03:00,63.0,44.6,29.72,WNW,297,0.0,3.6,52,0.00,,---,0.00,cosweather0.1e,2013-10-13 01:03:00,
2013-10-12 18:08:00,62.8,44.6,29.72,WNW,301,0.0,4.0,52,0.00,,---,0.00,cosweather0.1e,2013-10-13 01:08:00,
2013-10-12 18:13:00,62.4,44.6,29.76,NNW,333,0.0,3.6,52,0.00,,---,0.00,cosweather0.1e,2013-10-13 01:13:00,
2013-10-12 18:18:00,62.1,44.6,29.76,North,357,0.0,5.4,52,0.00,,---,0.00,cosweather0.1e,2013-10-13 01:18:00,
2013-10-12 18:23:00,61.7,44.6,29.76,NNW,343,0.0,6.3,52,0.00,,---,0.00,cosweather0.1e,2013-10-13 01:23:00,
2013-10-12 18:28:00,61.7,44.6,29.72,WNW,297,0.0,3.6,52,0.00,,---,0.00,cosweather0.1e,2013-10-13 01:28:00,
2013-10-12 18:33:00,61.5,42.8,29.72,NW,306,0.0,3.6,52,0.00,,---,0.00,cosweather0.1e,2013-10-13 01:33:00,
2013-10-12 18:38:00,61.5,42.8,29.72,NNW,338,0.0,4.0,52,0.00,,---,0.00,cosweather0.1e,2013-10-13 01:38:00,
2013-10-12 18:43:00,61.3,42.8,29.72,NNW,330,0.0,3.6,53,0.00,,---,0.00,cosweather0.1e,2013-10-13 01:43:00,
2013-10-12 18:48:00,61.0,44.6,29.72,NW,313,0.0,2.7,54,0.00,,---,0.00,cosweather0.1e,2013-10-13 01:48:00,
2013-10-12 18:53:00,61.2,44.6,29.72,WNW,302,0.0,4.0,54,0.00,,---,0.00,cosweather0.1e,2013-10-13 01:53:00,
2013-10-12 18:58:00,61.3,44.6,29.72,North,357,0.0,2.2,54,0.00,,---,0.00,cosweather0.1e,2013-10-13 01:58:00,
2013-10-12 19:03:00,61.3,44.6,29.72,WSW,238,0.0,0.0,54,0.00,,---,0.00,cosweather0.1e,2013-10-13 02:03:00,
2013-10-12 19:08:00,61.2,44.6,29.72,West,265,0.0,2.2,54,0.00,,---,0.00,cosweather0.1e,2013-10-13 02:08:00,
2013-10-12 19:13:00,61.3,44.6,29.72,West,274,0.0,0.0,54,0.00,,---,0.00,cosweather0.1e,2013-10-13 02:13:00,
2013-10-12 19:18:00,61.5,44.6,29.72,WNW,291,0.0,0.0,54,0.00,,---,0.00,cosweather0.1e,2013-10-13 02:18:00,
2013-10-12 19:23:00,61.7,46.4,29.72,NNW,327,0.0,2.7,54,0.00,,---,0.00,cosweather0.1e,2013-10-13 02:23:00,
2013-10-12 19:28:00,61.5,44.6,29.72,NNW,335,0.0,3.1,54,0.00,,---,0.00,cosweather0.1e,2013-10-13 02:28:00,
2013-10-12 19:33:00,61.2,44.6,29.72,NNW,330,0.0,0.0,54,0.00,,---,0.00,cosweather0.1e,2013-10-13 02:33:00,
2013-10-12 19:38:00,61.3,44.6,29.72,NNW,330,0.0,0.0,55,0.00,,---,0.00,cosweather0.1e,2013-10-13 02:38:00,
2013-10-12 19:43:00,61.2,44.6,29.72,SW,223,0.0,0.0,55,0.00,,---,0.00,cosweather0.1e,2013-10-13 02:43:00,
2013-10-12 19:48:00,61.2,44.6,29.72,SW,222,0.0,0.0,55,0.00,,---,0.00,cosweather0.1e,2013-10-13 02:48:00,
2013-10-12 19:53:00,61.0,44.6,29.72,SW,223,0.0,0.0,55,0.00,,---,0.00,cosweather0.1e,2013-10-13 02:53:00,
2013-10-12 19:58:00,61.0,44.6,29.72,SW,222,0.0,0.0,55,0.00,,---,0.00,cosweather0.1e,2013-10-13 02:58:00,
2013-10-12 20:03:00,61.2,44.6,29.72,SW,223,0.0,0.0,55,0.00,,---,0.00,cosweather0.1e,2013-10-13 03:03:00,
2013-10-12 20:08:00,61.2,44.6,29.72,SW,222,0.0,0.0,55,0.00,,---,0.00,cosweather0.1e,2013-10-13 03:08:00,
2013-10-12 20:13:00,61.0,44.6,29.76,SW,222,0.0,0.0,55,0.00,,---,0.00,cosweather0.1e,2013-10-13 03:13:00,
2013-10-12 20:18:00,61.0,44.6,29.76,SW,222,0.0,0.0,55,0.00,,---,0.00,cosweather0.1e,2013-10-13 03:18:00,
2013-10-12 20:23:00,60.8,44.6,29.76,SW,222,0.0,0.0,55,0.00,,---,0.00,cosweather0.1e,2013-10-13 03:23:00,
2013-10-12 20:28:00,60.8,44.6,29.76,SW,223,0.0,0.0,55,0.00,,---,0.00,cosweather0.1e,2013-10-13 03:28:00,
2013-10-12 20:34:00,60.6,44.6,29.76,SW,222,0.0,0.0,56,0.00,,---,0.00,cosweather0.1e,2013-10-13 03:34:00,
2013-10-12 20:39:00,60.6,44.6,29.76,SW,222,0.0,0.0,56,0.00,,---,0.00,cosweather0.1e,2013-10-13 03:39:00,
2013-10-12 20:44:00,60.4,44.6,29.76,SW,222,0.0,0.0,56,0.00,,---,0.00,cosweather0.1e,2013-10-13 03:44:00,
2013-10-12 20:49:00,60.3,44.6,29.76,SW,222,0.0,0.0,56,0.00,,---,0.00,cosweather0.1e,2013-10-13 03:49:00,
2013-10-12 20:54:00,60.3,46.4,29.76,SW,222,0.0,0.0,57,0.00,,---,0.00,cosweather0.1e,2013-10-13 03:54:00,
2013-10-12 20:59:00,60.3,46.4,29.76,SW,222,0.0,0.0,57,0.00,,---,0.00,cosweather0.1e,2013-10-13 03:59:00,
2013-10-12 21:01:00,60.3,46.4,29.76,SW,222,0.0,0.0,57,0.00,,---,0.00,cosweather0.1e,2013-10-13 04:01:00,
2013-10-12 21:06:00,60.1,46.4,29.76,SW,222,0.0,0.0,57,0.00,,---,0.00,cosweather0.1e,2013-10-13 04:06:00,
2013-10-12 21:11:00,60.1,46.4,29.76,SW,222,0.0,0.0,57,0.00,,---,0.00,cosweather0.1e,2013-10-13 04:11:00,
2013-10-12 21:16:00,59.9,46.4,29.76,SW,222,0.0,0.0,57,0.00,,---,0.00,cosweather0.1e,2013-10-13 04:16:00,
2013-10-12 21:21:00,59.7,44.6,29.76,SW,222,0.0,0.0,58,0.00,,---,0.00,cosweather0.1e,2013-10-13 04:21:00,
2013-10-12 21:26:00,59.7,44.6,29.76,SW,222,0.0,0.0,58,0.00,,---,0.00,cosweather0.1e,2013-10-13 04:26:00,
2013-10-12 21:31:00,59.7,44.6,29.76,SW,222,0.0,0.0,58,0.00,,---,0.00,cosweather0.1e,2013-10-13 04:31:00,
2013-10-12 21:36:00,59.5,44.6,29.76,SW,222,0.0,0.0,58,0.00,,---,0.00,cosweather0.1e,2013-10-13 04:36:00,
2013-10-12 21:41:00,59.5,44.6,29.76,SW,222,0.0,0.0,59,0.00,,---,0.00,cosweather0.1e,2013-10-13 04:41:00,
2013-10-12 21:46:00,59.5,44.6,29.76,SW,222,0.0,0.0,59,0.00,,---,0.00,cosweather0.1e,2013-10-13 04:46:00,
2013-10-12 21:51:00,59.4,44.6,29.76,SW,222,0.0,0.0,59,0.00,,---,0.00,cosweather0.1e,2013-10-13 04:51:00,
2013-10-12 21:56:00,59.4,44.6,29.76,SSE,167,0.0,0.0,59,0.00,,---,0.00,cosweather0.1e,2013-10-13 04:56:00,
2013-10-12 22:01:00,59.2,44.6,29.76,SSE,158,0.0,0.0,59,0.00,,---,0.00,cosweather0.1e,2013-10-13 05:01:00,
2013-10-12 22:06:00,59.2,44.6,29.76,SSE,158,0.0,0.0,60,0.00,,---,0.00,cosweather0.1e,2013-10-13 05:06:00,
2013-10-12 22:11:00,59.2,44.6,29.76,SSE,158,0.0,0.0,60,0.00,,---,0.00,cosweather0.1e,2013-10-13 05:11:00,
2013-10-12 22:16:00,59.2,46.4,29.76,SSE,158,0.0,0.0,61,0.00,,---,0.00,cosweather0.1e,2013-10-13 05:16:00,
2013-10-12 22:21:00,59.2,46.4,29.76,SSE,158,0.0,0.0,61,0.00,,---,0.00,cosweather0.1e,2013-10-13 05:21:00,
2013-10-12 22:26:00,59.2,46.4,29.76,SSE,158,0.0,0.0,62,0.00,,---,0.00,cosweather0.1e,2013-10-13 05:26:00,
2013-10-12 22:31:00,59.0,46.4,29.76,SSE,158,0.0,0.0,62,0.00,,---,0.00,cosweather0.1e,2013-10-13 05:31:00,
2013-10-12 22:36:00,58.8,46.4,29.76,South,184,0.0,0.0,63,0.00,,---,0.00,cosweather0.1e,2013-10-13 05:36:00,
2013-10-12 22:41:00,58.6,46.4,29.76,South,184,0.0,0.0,63,0.00,,---,0.00,cosweather0.1e,2013-10-13 05:41:00,
2013-10-12 22:46:00,58.5,46.4,29.76,South,183,0.0,0.0,64,0.00,,---,0.00,cosweather0.1e,2013-10-13 05:46:00,
2013-10-12 22:52:00,58.3,46.4,29.76,East,99,0.0,0.0,64,0.00,,---,0.00,cosweather0.1e,2013-10-13 05:52:00,
2013-10-12 22:57:00,58.5,46.4,29.76,East,100,0.0,0.0,64,0.00,,---,0.00,cosweather0.1e,2013-10-13 05:57:00,
2013-10-12 23:02:00,58.5,46.4,29.76,East,99,0.0,0.0,65,0.00,,---,0.00,cosweather0.1e,2013-10-13 06:02:00,
2013-10-12 23:07:00,58.5,46.4,29.76,East,99,0.0,0.0,65,0.00,,---,0.00,cosweather0.1e,2013-10-13 06:07:00,
2013-10-12 23:12:00,58.5,46.4,29.76,East,97,0.0,0.0,65,0.00,,---,0.00,cosweather0.1e,2013-10-13 06:12:00,
2013-10-12 23:17:00,58.5,46.4,29.76,East,96,0.0,0.0,65,0.00,,---,0.00,cosweather0.1e,2013-10-13 06:17:00,
2013-10-12 23:22:00,58.3,46.4,29.76,NE,55,0.0,0.0,65,0.00,,---,0.00,cosweather0.1e,2013-10-13 06:22:00,
2013-10-12 23:27:00,58.1,48.2,29.76,ENE,74,0.0,0.0,66,0.00,,---,0.00,cosweather0.1e,2013-10-13 06:27:00,
2013-10-12 23:32:00,57.9,46.4,29.76,ENE,76,0.0,0.0,66,0.00,,---,0.00,cosweather0.1e,2013-10-13 06:32:00,
2013-10-12 23:37:00,57.6,46.4,29.76,ENE,75,0.0,0.0,67,0.00,,---,0.00,cosweather0.1e,2013-10-13 06:37:00,
2013-10-12 23:42:00,57.6,46.4,29.76,ENE,76,0.0,0.0,68,0.00,,---,0.00,cosweather0.1e,2013-10-13 06:42:00,
2013-10-12 23:47:00,57.6,46.4,29.76,ENE,69,0.0,2.7,69,0.00,,---,0.00,cosweather0.1e,2013-10-13 06:47:00,
2013-10-12 23:52:00,57.4,46.4,29.76,ENE,63,0.0,2.7,69,0.00,,---,0.00,cosweather0.1e,2013-10-13 06:52:00,
2013-10-12 23:57:00,57.6,46.4,29.76,ENE,76,0.0,0.0,69,0.00,,---,0.00,cosweather0.1e,2013-10-13 06:57:00,